Time,TemperatureF,DewpointF,PressureIn,WindDirection,WindDirectionDegrees,WindSpeedMPH,WindSpeedGustMPH,Humidity,HourlyPrecipIn,Conditions,Clouds,dailyrainin,SoftwareType,DateUTC
2013-07-06 00:13:00,74.3,71.0,30.07,SSW,208,0.0,0.0,89,0.00,,,0.01,weatherlink.com 1.10,2013-07-06 04:13:00,
2013-07-06 00:28:00,74.1,71.0,30.07,WSW,243,0.0,0.0,89,0.00,,,0.01,weatherlink.com 1.10,2013-07-06 04:28:00,
2013-07-06 00:43:00,73.8,70.0,30.07,WSW,242,0.0,0.0,89,0.00,,,0.01,weatherlink.com 1.10,2013-07-06 04:43:00,
2013-07-06 00:58:00,73.7,71.0,30.07,SW,226,0.0,0.0,90,0.00,,,0.01,weatherlink.com 1.10,2013-07-06 04:58:00,
2013-07-06 01:13:00,73.6,71.0,30.07,SW,224,1.0,1.0,90,0.00,,,0.00,weatherlink.com 1.10,2013-07-06 05:13:00,
2013-07-06 01:30:00,73.4,70.0,30.06,SSW,208,0.0,1.0,90,0.00,,,0.00,weatherlink.com 1.10,2013-07-06 05:30:00,
2013-07-06 01:44:00,73.3,70.0,30.06,SW,228,0.0,0.0,90,0.00,,,0.00,weatherlink.com 1.10,2013-07-06 05:44:00,
2013-07-06 01:59:00,73.1,70.0,30.05,South,191,1.0,1.0,90,0.00,,,0.00,weatherlink.com 1.10,2013-07-06 05:59:00,
2013-07-06 02:14:00,72.8,70.0,30.05,South,191,0.0,0.0,90,0.00,,,0.00,weatherlink.com 1.10,2013-07-06 06:14:00,
2013-07-06 02:31:00,72.5,70.0,30.04,South,189,0.0,0.0,91,0.00,,,0.00,weatherlink.com 1.10,2013-07-06 06:31:00,
2013-07-06 02:46:00,72.4,70.0,30.04,SSW,194,0.0,0.0,91,0.00,,,0.00,weatherlink.com 1.10,2013-07-06 06:46:00,
2013-07-06 03:02:00,72.5,70.0,30.04,SSW,200,0.0,0.0,91,0.00,,,0.00,weatherlink.com 1.10,2013-07-06 07:02:00,
2013-07-06 03:16:00,72.4,70.0,30.03,SSW,205,0.0,1.0,91,0.00,,,0.00,weatherlink.com 1.10,2013-07-06 07:16:00,
2013-07-06 03:31:00,72.4,70.0,30.04,SSW,204,0.0,0.0,91,0.00,,,0.00,weatherlink.com 1.10,2013-07-06 07:31:00,
2013-07-06 03:47:00,72.2,70.0,30.03,SSW,204,0.0,0.0,91,0.00,,,0.00,weatherlink.com 1.10,2013-07-06 07:47:00,
2013-07-06 04:02:00,72.2,70.0,30.04,SSW,208,0.0,0.0,91,0.00,,,0.00,weatherlink.com 1.10,2013-07-06 08:02:00,
2013-07-06 04:16:00,72.1,69.0,30.03,SW,231,0.0,0.0,91,0.00,,,0.00,weatherlink.com 1.10,2013-07-06 08:16:00,
2013-07-06 04:31:00,72.3,70.0,30.04,SW,236,0.0,0.0,92,0.00,,,0.00,weatherlink.com 1.10,2013-07-06 08:31:00,
2013-07-06 04:47:00,72.2,70.0,30.04,WNW,300,0.0,0.0,92,0.00,,,0.00,weatherlink.com 1.10,2013-07-06 08:47:00,
2013-07-06 05:03:00,72.2,70.0,30.04,SSW,211,0.0,0.0,92,0.00,,,0.00,weatherlink.com 1.10,2013-07-06 09:03:00,
2013-07-06 05:17:00,72.1,70.0,30.04,SSW,205,0.0,0.0,92,0.00,,,0.00,weatherlink.com 1.10,2013-07-06 09:17:00,
2013-07-06 05:33:00,72.0,70.0,30.04,SSW,205,0.0,0.0,92,0.00,,,0.00,weatherlink.com 1.10,2013-07-06 09:33:00,
2013-07-06 05:48:00,71.9,70.0,30.04,WNW,297,0.0,0.0,92,0.00,,,0.00,weatherlink.com 1.10,2013-07-06 09:48:00,
2013-07-06 06:04:00,72.1,70.0,30.05,NW,317,0.0,1.0,92,0.00,,,0.00,weatherlink.com 1.10,2013-07-06 10:04:00,
2013-07-06 06:18:00,72.0,70.0,30.05,WNW,301,0.0,0.0,92,0.00,,,0.00,weatherlink.com 1.10,2013-07-06 10:18:00,
2013-07-06 06:33:00,72.2,70.0,30.05,WNW,302,0.0,0.0,92,0.00,,,0.00,weatherlink.com 1.10,2013-07-06 10:33:00,
2013-07-06 06:49:00,73.1,71.0,30.05,WNW,302,0.0,0.0,92,0.00,,,0.00,weatherlink.com 1.10,2013-07-06 10:49:00,
2013-07-06 07:05:00,74.2,72.0,30.06,NW,307,0.0,0.0,91,0.00,,,0.00,weatherlink.com 1.10,2013-07-06 11:05:00,
2013-07-06 07:19:00,75.6,73.0,30.06,East,94,0.0,0.0,91,0.00,,,0.00,weatherlink.com 1.10,2013-07-06 11:19:00,
2013-07-06 07:34:00,78.0,75.0,30.07,East,96,0.0,0.0,89,0.00,,,0.00,weatherlink.com 1.10,2013-07-06 11:34:00,
2013-07-06 07:51:00,80.4,75.0,30.07,South,173,0.0,0.0,84,0.00,,,0.00,weatherlink.com 1.10,2013-07-06 11:51:00,
2013-07-06 08:06:00,80.4,75.0,30.07,WSW,243,3.0,3.0,82,0.00,,,0.00,weatherlink.com 1.10,2013-07-06 12:06:00,
2013-07-06 08:21:00,81.0,75.0,30.07,West,266,2.0,4.0,82,0.00,,,0.00,weatherlink.com 1.10,2013-07-06 12:21:00,
2013-07-06 08:36:00,81.7,75.0,30.07,WSW,248,2.0,7.0,80,0.00,,,0.00,weatherlink.com 1.10,2013-07-06 12:36:00,
2013-07-06 08:51:00,81.8,75.0,30.07,SSW,198,5.0,7.0,79,0.00,,,0.00,weatherlink.com 1.10,2013-07-06 12:51:00,
2013-07-06 09:06:00,82.3,74.0,30.07,SSE,152,6.0,10.0,75,0.00,,,0.00,weatherlink.com 1.10,2013-07-06 13:06:00,
2013-07-06 09:21:00,83.5,74.0,30.07,SSW,200,4.0,7.0,74,0.00,,,0.00,weatherlink.com 1.10,2013-07-06 13:21:00,
2013-07-06 09:36:00,82.7,73.0,30.07,SW,228,4.0,8.0,73,0.00,,,0.00,weatherlink.com 1.10,2013-07-06 13:36:00,
2013-07-06 09:52:00,84.1,74.0,30.07,SSW,198,4.0,9.0,72,0.00,,,0.00,weatherlink.com 1.10,2013-07-06 13:52:00,
2013-07-06 10:07:00,84.0,73.0,30.07,SSW,194,6.0,11.0,70,0.00,,,0.00,weatherlink.com 1.10,2013-07-06 14:07:00,
2013-07-06 10:22:00,83.3,72.0,30.07,SSW,212,4.0,10.0,69,0.00,,,0.00,weatherlink.com 1.10,2013-07-06 14:22:00,
2013-07-06 10:38:00,84.6,74.0,30.07,SSW,200,2.0,7.0,70,0.00,,,0.00,weatherlink.com 1.10,2013-07-06 14:38:00,
2013-07-06 10:53:00,85.0,72.0,30.07,SSW,204,3.0,11.0,66,0.00,,,0.00,weatherlink.com 1.10,2013-07-06 14:53:00,
2013-07-06 11:08:00,85.6,73.0,30.07,SW,214,10.0,12.0,67,0.00,,,0.00,weatherlink.com 1.10,2013-07-06 15:08:00,
2013-07-06 11:23:00,86.3,75.0,30.07,SSW,193,11.0,13.0,69,0.00,,,0.00,weatherlink.com 1.10,2013-07-06 15:23:00,
2013-07-06 11:38:00,85.5,72.0,30.07,SSW,203,7.0,15.0,64,0.00,,,0.00,weatherlink.com 1.10,2013-07-06 15:38:00,
2013-07-06 11:54:00,86.0,73.0,30.07,SW,219,8.0,11.0,66,0.00,,,0.00,weatherlink.com 1.10,2013-07-06 15:54:00,
2013-07-06 12:09:00,85.9,71.0,30.07,SSW,212,10.0,13.0,62,0.00,,,0.00,weatherlink.com 1.10,2013-07-06 16:09:00,
2013-07-06 12:24:00,86.6,72.0,30.07,SSW,203,6.0,14.0,63,0.00,,,0.00,weatherlink.com 1.10,2013-07-06 16:24:00,
2013-07-06 12:39:00,86.3,74.0,30.06,SW,236,5.0,13.0,66,0.00,,,0.00,weatherlink.com 1.10,2013-07-06 16:39:00,
2013-07-06 12:56:00,86.8,72.0,30.06,SW,224,8.0,15.0,62,0.00,,,0.00,weatherlink.com 1.10,2013-07-06 16:56:00,
2013-07-06 14:12:00,86.9,71.0,30.04,SW,236,5.0,13.0,59,0.00,,,0.00,weatherlink.com 1.10,2013-07-06 18:12:00,
2013-07-06 14:56:00,86.7,71.0,30.02,SSW,195,4.0,13.0,59,0.00,,,0.00,weatherlink.com 1.10,2013-07-06 18:56:00,
2013-07-06 15:42:00,86.1,71.0,30.01,South,184,11.0,15.0,61,0.00,,,0.00,weatherlink.com 1.10,2013-07-06 19:42:00,
2013-07-06 15:57:00,86.3,72.0,30.01,SW,235,7.0,15.0,62,0.00,,,0.00,weatherlink.com 1.10,2013-07-06 19:57:00,
2013-07-06 16:12:00,86.5,72.0,30.00,SSW,207,7.0,14.0,62,0.00,,,0.00,weatherlink.com 1.10,2013-07-06 20:12:00,
2013-07-06 16:43:00,85.7,72.0,30.00,SSW,195,10.0,14.0,63,0.00,,,0.00,weatherlink.com 1.10,2013-07-06 20:43:00,
2013-07-06 16:58:00,85.4,72.0,30.00,SW,229,10.0,17.0,65,0.00,,,0.00,weatherlink.com 1.10,2013-07-06 20:58:00,
2013-07-06 17:13:00,85.8,72.0,29.99,South,190,6.0,13.0,64,0.00,,,0.00,weatherlink.com 1.10,2013-07-06 21:13:00,
2013-07-06 17:44:00,84.7,72.0,29.98,SW,221,5.0,17.0,65,0.00,,,0.00,weatherlink.com 1.10,2013-07-06 21:44:00,
2013-07-06 17:59:00,84.5,73.0,29.98,SSW,203,9.0,17.0,68,0.00,,,0.00,weatherlink.com 1.10,2013-07-06 21:59:00,
2013-07-06 18:14:00,83.7,73.0,29.98,SSW,193,8.0,18.0,70,0.00,,,0.00,weatherlink.com 1.10,2013-07-06 22:14:00,
2013-07-06 18:31:00,83.9,73.0,29.98,SSW,197,9.0,16.0,69,0.00,,,0.00,weatherlink.com 1.10,2013-07-06 22:31:00,
2013-07-06 19:16:00,83.0,74.0,29.98,SSW,201,6.0,12.0,73,0.00,,,0.00,weatherlink.com 1.10,2013-07-06 23:16:00,
2013-07-06 19:31:00,82.9,74.0,29.98,SSW,204,7.0,9.0,74,0.00,,,0.00,weatherlink.com 1.10,2013-07-06 23:31:00,
2013-07-06 20:16:00,80.7,74.0,29.99,WSW,240,4.0,7.0,79,0.00,,,0.00,weatherlink.com 1.10,2013-07-07 00:16:00,
2013-07-06 20:47:00,79.6,73.0,29.99,SSW,203,2.0,4.0,81,0.00,,,0.00,weatherlink.com 1.10,2013-07-07 00:47:00,
2013-07-06 21:03:00,79.4,74.0,29.99,SSW,203,2.0,4.0,82,0.00,,,0.00,weatherlink.com 1.10,2013-07-07 01:03:00,
2013-07-06 21:17:00,79.0,73.0,30.00,SW,216,1.0,3.0,82,0.00,,,0.00,weatherlink.com 1.10,2013-07-07 01:17:00,
2013-07-06 21:48:00,77.9,73.0,30.01,SSW,206,0.0,3.0,84,0.00,,,0.00,weatherlink.com 1.10,2013-07-07 01:48:00,
2013-07-06 22:04:00,77.7,72.0,30.01,SSW,205,2.0,3.0,83,0.00,,,0.00,weatherlink.com 1.10,2013-07-07 02:04:00,
2013-07-06 22:48:00,76.7,72.0,30.01,SSW,207,2.0,3.0,85,0.00,,,0.00,weatherlink.com 1.10,2013-07-07 02:48:00,
2013-07-06 23:34:00,75.8,71.0,30.02,SSW,205,0.0,1.0,86,0.00,,,0.00,weatherlink.com 1.10,2013-07-07 03:34:00,